Regional Weather Roundup
Issued by NWS

Home | Current Version | Previous Version | Graphics & Text | Print | Product List | Glossary On
Versions: 1 2 3 4 5 6 7 8 9 10 11 12 13 14 15 16 17 18 19 20 21 22 23 24 25 26 27 28 29 30 31 32 33 34 35 36 37 38 39 40 41 42 43 44 45 46 47 48 49 50
000
ASUS43 KIND 021559
RWRIN

WEATHER ROUNDUP FOR INDIANA
NATIONAL WEATHER SERVICE INDIANAPOLIS IN
1200 PM EDT THU JUL 02 2015

NOTE: "FAIR" INDICATES FEW OR NO CLOUDS BELOW 12,000 FEET WITH NO
SIGNIFICANT WEATHER AND/OR OBSTRUCTIONS TO VISIBILITY.

* - STATION DOES NOT REPORT WEATHER SUCH AS PRECIPITATION OR FOG.

+ - STATION NOT QUALITY CONTROLLED BY THE NATIONAL WEATHER SERVICE.
    USE DATA WITH CAUTION...ESPECIALLY DEWPOINT AND RELATIVE
    HUMIDITY OBSERVATIONS.

INZ001>003-010>013-019-020-021700-
NORTHWEST INDIANA

CITY           SKY/WX    TMP DP  RH WIND       PRES   REMARKS
GARY /AIRPORT/ PTSUNNY   66  59  77 N14       30.01R
RENSSELAER +   SUNNY     70  61  73 NE12      29.96S

$$

LMZ046-743>745-021700-
SOUTHERN LAKE MICHIGAN

STATION/POSITION TIME  TEMP    WIND        PRES    WAVE
                       AIR SEA DIR/SP/G            HT
                 (UTC) (F)     (DEG/KT/KT) (MB)    (FT)
BURNS HARBOR     1500   61      30/ 12/ 13 1016.3R
MICHIGAN CITY    1500   60      10/ 12/ 14   N/A
5NW MICH CITY    1500   61 64   40/ 12/ 16   N/A     3

$$

INZ004-005-014>016-021>024-021700-
NORTH CENTRAL INDIANA

CITY           SKY/WX    TMP DP  RH WIND       PRES   REMARKS
ELKHART        MOSUNNY   68  55  64 E7        29.99S
GOSHEN         MOSUNNY   69  58  67 E10       29.99R
PERU/GRISSOM   MOSUNNY   70  62  75 NE10      29.94F
SOUTH BEND     MOSUNNY   70  55  59 NE7       29.99R

$$

INZ006>009-017-018-025>027-021700-
NORTHEAST INDIANA

CITY           SKY/WX    TMP DP  RH WIND       PRES   REMARKS
ANGOLA *+        N/A     68  57  68 E9        30.00S
FORT WAYNE     PTSUNNY   69  62  78 NE14      29.98R

$$

INZ028-029-035-036-043>045-051>053-021700-
WEST CENTRAL INDIANA

CITY           SKY/WX    TMP DP  RH WIND       PRES   REMARKS
CRAWFORDSVL +  MOSUNNY   66  55  67 N7        29.93F
GREENCASTLE +  PTSUNNY   70  57  64 NE6       29.92S
LAFAYETTE      CLOUDY    65  58  78 NE6       29.95S
TERRE HAUTE    PTSUNNY   68  60  75 NE6       29.92R

$$

INZ030>032-037>040-046>048-054>057-064-065-021700-
CENTRAL INDIANA

CITY           SKY/WX    TMP DP  RH WIND       PRES   REMARKS
COLUMBUS       CLOUDY    70  63  78 N8        29.91S
GREENWOOD *+   CLOUDY    70  59  68 E7        29.92S
INDIANAPOLIS   MOSUNNY   73  59  61 NE8       29.90F
-EAGLE CREEK   MOSUNNY   71  60  68 E8        29.91F
KOKOMO *+      MOSUNNY   70  61  73 E8        29.94S
MT COMFORT *+  MOSUNNY   72  57  60 NE8       29.92F
SHELBYVILLE    PTSUNNY   73  62  68 NE7       29.91S

$$

INZ033-034-041-042-049-050-058-059-021700-
EAST CENTRAL INDIANA

CITY           SKY/WX    TMP DP  RH WIND       PRES   REMARKS
MUNCIE         PTSUNNY   72  61  68 E12       29.94S

$$

INZ060-061-067>069-081>083-085>088-021700-
SOUTHWEST INDIANA

CITY           SKY/WX    TMP DP  RH WIND       PRES   REMARKS
EVANSVILLE     CLOUDY    74  69  85 SE7       29.89S
HUNTINGBURG *+ PTSUNNY   73  66  78 SW9       29.89S

$$

INZ062-063-066-070>080-084-089>092-021700-
SOUTH CENTRAL AND SOUTHEAST INDIANA

CITY           SKY/WX    TMP DP  RH WIND       PRES   REMARKS
BLOOMINGTON    PTSUNNY   71  65  81 NE5       29.90S
MADISON *+     CLOUDY    72  68  88 CALM      29.91R
SEYMOUR +      CLOUDY    75  70  83 NW3       29.89R

$$



USA.gov is the U.S. government's official web portal to all federal, state and local government web resources and services.